Retour au catalogue

SL-14 DEB

ActifPO
NORAD 45332·DEBRIS·🇷🇺 Russia

Lancé Aug 15, 1991 depuis Plesetsk Cosmodrome

Loading…

Prochains Passages (prochaines 24 heures)

TLE

FraisSource: Space-Track

Époque: Sep 12, 2026, 23:35 UTC

1 45332U 91056BW  26255.98331276  .00000552  00000-0  14417-2 0  9998
2 45332  82.5485  89.4575 0106872 341.7595  17.9703 13.13235728312993

Suivez SL-14 DEB en temps réel avec AllMySat

Download on the App Store